When you browse on this site, cookies collect data to enhance your experience and personalize the content and advertising you see.
Visit our Privacy Policy to learn more. By continuing to use the site, you agree to this use of cookies and data.
EN

Hourly Weather Pietrusy

Today, 2 July, Thursday

Time Temperature Precipitation Wind Pressure Humidity
00:00 +19°C° 0.3 mm 3 mps 742 mmHg 90%
01:00 +19°C° 0.3 mm 3 mps 742 mmHg 92%
02:00 +18°C° 0 mm 3 mps 742 mmHg 93%
03:00 +18°C° 0.6 mm 3 mps 742 mmHg 94%
04:00 +18°C° 0.6 mm 3 mps 741 mmHg 94%
05:00 +18°C° 0.6 mm 3 mps 741 mmHg 95%
06:00 +20°C° 0.2 mm 3 mps 741 mmHg 91%
07:00 +21°C° 0.2 mm 4 mps 742 mmHg 88%
08:00 +23°C° 0.2 mm 4 mps 742 mmHg 85%
09:00 +25°C° 0.6 mm 5 mps 742 mmHg 81%
10:00 +26°C° 0.6 mm 5 mps 742 mmHg 78%
11:00 +27°C° 0.6 mm 6 mps 742 mmHg 74%
12:00 +27°C° 0.7 mm 6 mps 742 mmHg 73%
13:00 +27°C° 0.7 mm 5 mps 743 mmHg 72%
14:00 +27°C° 0.7 mm 5 mps 743 mmHg 71%
15:00 +27°C° 0.9 mm 4 mps 743 mmHg 72%
16:00 +27°C° 0.9 mm 4 mps 743 mmHg 72%
17:00 +27°C° 0.9 mm 3 mps 743 mmHg 73%
18:00 +26°C° 0.5 mm 2 mps 743 mmHg 76%
19:00 +24°C° 0.5 mm 2 mps 743 mmHg 79%
20:00 +23°C° 0.5 mm 1 mps 743 mmHg 82%
21:00 +22°C° 0 mm 1 mps 743 mmHg 84%
22:00 +21°C° 0 mm 1 mps 743 mmHg 86%
23:00 +20°C° 0 mm 1 mps 743 mmHg 87%

Tomorrow, 3 July, Friday

Time Temperature Precipitation Wind Pressure Humidity
00:00 +20°C° 0 mm 1 mps 743 mmHg 88%
01:00 +20°C° 0 mm 1 mps 743 mmHg 88%
02:00 +19°C° 0 mm 1 mps 743 mmHg 89%
03:00 +19°C° 0 mm 1 mps 743 mmHg 90%
04:00 +19°C° 0 mm 1 mps 743 mmHg 91%
05:00 +19°C° 0 mm 1 mps 743 mmHg 92%
06:00 +19°C° 0 mm 2 mps 743 mmHg 89%
07:00 +21°C° 0 mm 2 mps 743 mmHg 87%
08:00 +23°C° 0 mm 2 mps 743 mmHg 85%
09:00 +24°C° 1.3 mm 2 mps 743 mmHg 82%
10:00 +24°C° 1.3 mm 2 mps 743 mmHg 79%
11:00 +25°C° 1.3 mm 2 mps 743 mmHg 77%
12:00 +24°C° 0.7 mm 2 mps 743 mmHg 81%
13:00 +22°C° 0.7 mm 3 mps 743 mmHg 86%
14:00 +20°C° 0.7 mm 3 mps 743 mmHg 91%
15:00 +21°C° 0 mm 2 mps 743 mmHg 89%
16:00 +21°C° 0 mm 2 mps 743 mmHg 88%
17:00 +21°C° 0 mm 2 mps 743 mmHg 86%
18:00 +21°C° 0.1 mm 2 mps 743 mmHg 87%
19:00 +21°C° 0.1 mm 2 mps 744 mmHg 89%
20:00 +20°C° 0.1 mm 2 mps 744 mmHg 90%
21:00 +19°C° 0 mm 2 mps 745 mmHg 91%
22:00 +18°C° 0 mm 3 mps 745 mmHg 93%
23:00 +17°C° 0 mm 3 mps 745 mmHg 94%

Day after tomorrow, 4 July, Saturday

Time Temperature Precipitation Wind Pressure Humidity
00:00 +17°C° 0 mm 3 mps 746 mmHg 95%
01:00 +16°C° 0 mm 3 mps 746 mmHg 95%
02:00 +16°C° 0 mm 3 mps 746 mmHg 96%
03:00 +15°C° 0 mm 2 mps 746 mmHg 96%
04:00 +15°C° 0 mm 2 mps 747 mmHg 96%
05:00 +15°C° 0 mm 2 mps 747 mmHg 96%
06:00 +16°C° 0 mm 2 mps 747 mmHg 92%
07:00 +17°C° 0 mm 2 mps 747 mmHg 88%
08:00 +19°C° 0 mm 2 mps 748 mmHg 83%
09:00 +20°C° 0 mm 2 mps 748 mmHg 78%
10:00 +21°C° 0 mm 2 mps 748 mmHg 72%
11:00 +23°C° 0 mm 2 mps 748 mmHg 67%
12:00 +23°C° 0 mm 2 mps 748 mmHg 64%
13:00 +24°C° 0 mm 2 mps 748 mmHg 62%
14:00 +24°C° 0 mm 2 mps 748 mmHg 59%
15:00 +25°C° 0 mm 1 mps 748 mmHg 60%
16:00 +25°C° 0 mm 1 mps 747 mmHg 60%
17:00 +25°C° 0 mm 1 mps 747 mmHg 60%
18:00 +24°C° 0 mm 1 mps 747 mmHg 65%
19:00 +23°C° 0 mm 1 mps 747 mmHg 69%
20:00 +22°C° 0 mm 1 mps 747 mmHg 74%
21:00 +21°C° 0 mm 1 mps 747 mmHg 75%
22:00 +19°C° 0 mm 2 mps 748 mmHg 76%
23:00 +18°C° 0 mm 2 mps 748 mmHg 77%

5 July, Sunday

Time Temperature Precipitation Wind Pressure Humidity
00:00 +17°C° 0 mm 2 mps 748 mmHg 79%
01:00 +17°C° 0 mm 2 mps 747 mmHg 81%
02:00 +17°C° 0 mm 2 mps 747 mmHg 83%
03:00 +16°C° 0 mm 2 mps 747 mmHg 84%
04:00 +16°C° 0 mm 2 mps 747 mmHg 85%
05:00 +16°C° 0 mm 2 mps 747 mmHg 86%
06:00 +18°C° 0 mm 3 mps 747 mmHg 84%
07:00 +19°C° 0 mm 3 mps 747 mmHg 81%
08:00 +21°C° 0 mm 3 mps 747 mmHg 79%
09:00 +22°C° 0.1 mm 3 mps 747 mmHg 74%
10:00 +23°C° 0.1 mm 4 mps 747 mmHg 70%
11:00 +25°C° 0.1 mm 4 mps 747 mmHg 66%
12:00 +25°C° 0.2 mm 4 mps 747 mmHg 66%
13:00 +26°C° 0.2 mm 4 mps 746 mmHg 66%
14:00 +26°C° 0.2 mm 4 mps 746 mmHg 66%
15:00 +26°C° 0.2 mm 4 mps 746 mmHg 67%
16:00 +26°C° 0.2 mm 4 mps 745 mmHg 68%
17:00 +26°C° 0.2 mm 4 mps 745 mmHg 69%
18:00 +25°C° 0.1 mm 4 mps 745 mmHg 74%
19:00 +24°C° 0.1 mm 3 mps 745 mmHg 78%
20:00 +22°C° 0.1 mm 3 mps 745 mmHg 83%
21:00 +21°C° 0 mm 3 mps 745 mmHg 85%
22:00 +20°C° 0 mm 3 mps 745 mmHg 86%
23:00 +19°C° 0 mm 3 mps 745 mmHg 88%

6 July, Monday

Time Temperature Precipitation Wind Pressure Humidity
00:00 +19°C° 0 mm 3 mps 745 mmHg 89%
01:00 +19°C° 0 mm 4 mps 744 mmHg 90%
02:00 +19°C° 0 mm 4 mps 744 mmHg 91%
03:00 +18°C° 0 mm 3 mps 744 mmHg 92%
04:00 +18°C° 0 mm 3 mps 744 mmHg 93%
05:00 +18°C° 0 mm 3 mps 744 mmHg 94%
06:00 +19°C° 0 mm 3 mps 744 mmHg 90%
07:00 +20°C° 0 mm 4 mps 744 mmHg 87%
08:00 +21°C° 0 mm 4 mps 744 mmHg 83%
09:00 +22°C° 0 mm 5 mps 744 mmHg 80%
10:00 +25°C° 0 mm 5 mps 744 mmHg 77%
11:00 +26°C° 0 mm 5 mps 744 mmHg 73%
12:00 +26°C° 0.4 mm 5 mps 744 mmHg 73%
13:00 +26°C° 0.4 mm 5 mps 744 mmHg 73%
14:00 +26°C° 0.4 mm 5 mps 743 mmHg 73%
15:00 +26°C° 0.3 mm 4 mps 743 mmHg 75%
16:00 +26°C° 0.3 mm 4 mps 743 mmHg 77%
17:00 +26°C° 0.3 mm 3 mps 743 mmHg 79%
18:00 +25°C° 0.1 mm 3 mps 743 mmHg 81%
19:00 +24°C° 0.1 mm 2 mps 743 mmHg 83%
20:00 +23°C° 0.1 mm 2 mps 742 mmHg 85%
21:00 +23°C° 0 mm 2 mps 743 mmHg 85%
22:00 +21°C° 0 mm 2 mps 743 mmHg 85%
23:00 +20°C° 0 mm 2 mps 743 mmHg 85%

7 July, Tuesday

Time Temperature Precipitation Wind Pressure Humidity
00:00 +20°C° 0 mm 2 mps 743 mmHg 87%
01:00 +19°C° 0 mm 2 mps 743 mmHg 89%
02:00 +19°C° 0 mm 3 mps 743 mmHg 90%
03:00 +18°C° 0 mm 3 mps 744 mmHg 90%
04:00 +18°C° 0 mm 3 mps 744 mmHg 90%
05:00 +18°C° 0 mm 3 mps 744 mmHg 89%
06:00 +18°C° 0 mm 3 mps 744 mmHg 87%
07:00 +19°C° 0 mm 3 mps 745 mmHg 84%
08:00 +19°C° 0 mm 4 mps 745 mmHg 82%
09:00 +20°C° 0 mm 4 mps 746 mmHg 77%
10:00 +20°C° 0 mm 4 mps 746 mmHg 72%
11:00 +21°C° 0 mm 5 mps 746 mmHg 67%
12:00 +21°C° 0 mm 4 mps 746 mmHg 64%
13:00 +21°C° 0 mm 4 mps 746 mmHg 61%
14:00 +21°C° 0 mm 4 mps 746 mmHg 58%
15:00 +21°C° 0 mm 4 mps 746 mmHg 59%
16:00 +21°C° 0 mm 4 mps 746 mmHg 59%
17:00 +21°C° 0 mm 4 mps 746 mmHg 60%
18:00 +20°C° 0 mm 3 mps 746 mmHg 65%
19:00 +19°C° 0 mm 3 mps 746 mmHg 70%
20:00 +18°C° 0 mm 3 mps 746 mmHg 76%
21:00 +17°C° 0 mm 3 mps 747 mmHg 75%
22:00 +16°C° 0 mm 2 mps 747 mmHg 75%
23:00 +15°C° 0 mm 2 mps 747 mmHg 74%
Show more